Berthoud Pass, CO

4:07 AM MST on December 10, 2019 (GMT -0700)
Berthoud Pass

Weather History for K0CO - November, 2019

Change the Weather History Date:

Sunday, November 17, 2019

  Actual Average (KBJC) Record (KBJC)
Temperature  
Mean Temperature 16 °F -  
Max Temperature 23 °F 49 °F 77 °F (1999)
Min Temperature 10 °F 29 °F 14 °F (2000)
Degree Days  
Heating Degree Days 48    
Moisture  
Dew Point 0 °F    
Average Humidity 48    
Maximum Humidity 53    
Minimum Humidity 45    
Precipitation  
Precipitation 0.00 in - - ()
Sea Level Pressure  
Sea Level Pressure 30.23 in    
Wind  
Wind Speed 35 mph (NW)    
Max Wind Speed 54 mph    
Max Gust Speed 69 mph    
Visibility 3 miles    
Events Snow    
Averages and records for this station are not official NWS values.
T = Trace of Precipitation, MM = Missing Value Source: NWS Daily Summary

Daily Weather History Graph

Daily Weather History Graph

Search for Another Location

Airport or City:

Astronomy

Nov. 17, 2019 Rise Set
Actual Time 6:49 AM MST 4:45 PM MST
Civil Twilight 6:20 AM MST 5:14 PM MST
Nautical Twilight 5:48 AM MST 5:47 PM MST
Astronomical Twilight 5:15 AM MST 6:19 PM MST
Moon 9:25 PM MST (11/17) 11:37 AM MST (11/17)
Length of Visible Light 10h 54m
Length of Day
9h 55m
Waning Gibbous, 73% of the Moon is Illuminated
Nov 17
Waning Gibbous
Nov 19
Last Quarter
Nov 26
New
Dec 3
First Quarter
Dec 11
Full

Hourly Weather History & Observations

Time (MST) Temp. Windchill Dew Point Humidity Pressure Visibility Wind Dir Wind Speed Gust Speed Precip Events Conditions
12:12 AM 14.0 °F -6.2 °F -2.2 °F 49% 30.25 in - NW 27.6 mph 43.7 mph N/A   Overcast
12:48 AM 14.0 °F -7.7 °F -2.2 °F 49% 30.23 in - NNW 33.4 mph 46.0 mph N/A   Overcast
1:12 AM 14.0 °F -8.0 °F -4.0 °F 45% 30.23 in - NNW 34.5 mph - N/A   Overcast
1:30 AM 14.0 °F -8.8 °F -4.0 °F 45% 30.22 in - NNW 38.0 mph - N/A   Overcast
1:48 AM 14.0 °F -8.0 °F -4.0 °F 45% 30.22 in - NNW 34.5 mph 47.2 mph N/A   Overcast
2:12 AM 14.0 °F -8.3 °F -4.0 °F 45% 30.22 in - NW 35.7 mph 47.2 mph N/A   Overcast
2:48 AM 12.2 °F -10.8 °F -4.0 °F 48% 30.21 in - NW 35.7 mph 49.5 mph N/A   Overcast
3:12 AM 12.2 °F -11.6 °F -4.0 °F 48% 30.20 in - NW 39.1 mph 49.5 mph N/A   Overcast
3:30 AM 12.2 °F -11.0 °F -4.0 °F 48% 30.21 in - NW 36.8 mph 51.8 mph N/A   Overcast
3:48 AM 12.2 °F -11.6 °F -4.0 °F 48% 30.20 in - NW 39.1 mph 54.1 mph N/A   Overcast
4:12 AM 12.2 °F -13.2 °F -4.0 °F 48% 30.18 in - NW 47.2 mph 54.1 mph N/A   Mostly Cloudy
4:30 AM 12.2 °F -12.5 °F -4.0 °F 48% 30.19 in - NW 43.7 mph 56.4 mph N/A   Scattered Clouds
5:12 AM 12.2 °F -12.1 °F -5.8 °F 45% 30.19 in - NW 41.4 mph 55.2 mph N/A   Clear
5:31 AM 12.2 °F -9.6 °F -5.8 °F 45% 30.20 in - NNW 31.1 mph 47.2 mph N/A   Mostly Cloudy
5:48 AM 12.2 °F -9.6 °F -4.0 °F 48% 30.21 in - North 31.1 mph 44.9 mph N/A   Overcast
6:12 AM 12.2 °F -11.0 °F -4.0 °F 48% 30.21 in - North 36.8 mph 42.6 mph N/A   Overcast
6:30 AM 12.2 °F - -4.0 °F 48% 30.20 in - North - - N/A   Overcast
6:48 AM 12.2 °F - -5.8 °F 45% 30.21 in - North - - N/A   Overcast
7:12 AM 10.4 °F -14.6 °F -5.8 °F 48% 30.22 in - NNW 41.4 mph 47.2 mph N/A   Overcast
7:29 AM 10.4 °F -12.3 °F -5.8 °F 48% 30.24 in - NNW 32.2 mph 47.2 mph N/A   Overcast
7:53 AM 10.4 °F -11.7 °F -5.8 °F 48% 30.25 in - NNW 29.9 mph 47.2 mph N/A   Overcast
8:12 AM 10.4 °F -9.5 °F -5.8 °F 48% 30.25 in - North 23.0 mph 40.3 mph N/A   Overcast
8:30 AM 10.4 °F -11.0 °F -5.8 °F 48% 30.25 in - NW 27.6 mph 43.7 mph N/A   Overcast
8:48 AM 12.2 °F - -4.0 °F 48% 30.28 in - North - - N/A   Overcast
9:12 AM 12.2 °F -10.8 °F -4.0 °F 48% 30.27 in - NNW 35.7 mph - N/A   Mostly Cloudy
9:30 AM 12.2 °F -10.5 °F -4.0 °F 48% 30.26 in - NNW 34.5 mph 43.7 mph N/A   Mostly Cloudy
9:54 AM 12.2 °F -10.5 °F -4.0 °F 48% 30.27 in - NNW 34.5 mph - N/A   Scattered Clouds
10:12 AM 14.0 °F -7.4 °F -4.0 °F 45% 30.28 in - NNW 32.2 mph 40.3 mph N/A   Scattered Clouds
10:30 AM 14.0 °F -7.4 °F -4.0 °F 45% 30.29 in - NNW 32.2 mph 44.9 mph N/A   Scattered Clouds
10:54 AM 14.0 °F - -2.2 °F 49% 30.28 in - North - - N/A   Scattered Clouds
11:29 AM 14.0 °F -6.2 °F -0.4 °F 53% 30.28 in - North 27.6 mph 40.3 mph N/A   Clear
11:53 AM 15.8 °F -3.1 °F -0.4 °F 49% 30.26 in - North 25.3 mph 48.3 mph N/A   Clear
12:12 PM 15.8 °F -4.1 °F -0.4 °F 49% 30.26 in - North 28.8 mph 43.7 mph N/A   Clear
12:30 PM 17.6 °F -3.1 °F -0.4 °F 45% 30.24 in - North 34.5 mph 48.3 mph N/A   Clear
12:48 PM 17.6 °F 1.7 °F 1.4 °F 49% 30.25 in - North 18.4 mph 43.7 mph N/A   Clear
1:12 PM 17.6 °F 0.1 °F 1.4 °F 49% 30.25 in - North 23.0 mph 40.3 mph N/A   Clear
1:30 PM 19.4 °F 4.1 °F 1.4 °F 46% 30.24 in - North 18.4 mph 43.7 mph N/A   Clear
1:48 PM 17.6 °F -2.5 °F 1.4 °F 49% 30.24 in - NNW 32.2 mph 42.6 mph N/A   Clear
2:12 PM 19.4 °F 0.2 °F 1.4 °F 46% 30.24 in - NNW 31.1 mph 43.7 mph N/A   Clear
2:30 PM 19.4 °F 2.8 °F 3.2 °F 49% 30.25 in - North 21.9 mph 38.0 mph N/A   Clear
2:48 PM 19.4 °F 2.5 °F 3.2 °F 49% 30.25 in - NW 23.0 mph 43.7 mph N/A   Clear
3:12 PM 19.4 °F 1.4 °F 3.2 °F 49% 30.25 in - NNW 26.5 mph 43.7 mph N/A   Clear
3:30 PM 19.4 °F 2.1 °F 3.2 °F 49% 30.26 in - NW 24.2 mph 35.7 mph N/A   Clear
3:48 PM 19.4 °F 0.2 °F 3.2 °F 49% 30.25 in - NNW 31.1 mph 38.0 mph N/A   Clear
4:12 PM 19.4 °F -1.3 °F 3.2 °F 49% 30.23 in - NW 38.0 mph 48.3 mph N/A   Clear
4:29 PM 21.2 °F 1.4 °F 3.2 °F 46% 30.24 in - NW 36.8 mph 49.5 mph N/A   Clear
4:53 PM 21.2 °F 0.9 °F 3.2 °F 46% 30.24 in - NW 39.1 mph 52.9 mph N/A   Clear
5:12 PM 19.4 °F -1.3 °F 3.2 °F 49% 30.23 in - NW 38.0 mph 55.2 mph N/A   Clear
5:31 PM 19.4 °F -0.6 °F 3.2 °F 49% 30.21 in 10.0 mi NW 34.5 mph 50.6 mph N/A   Clear
5:49 PM 19.4 °F -1.6 °F 3.2 °F 49% 30.21 in 7.0 mi NW 39.1 mph 55.2 mph N/A   Clear
6:12 PM 21.2 °F -0.9 °F 5.0 °F 50% 30.19 in 4.0 mi NW 49.5 mph 59.8 mph N/A Snow Light Snow
6:30 PM 23.0 °F 2.0 °F 6.8 °F 50% 30.21 in 7.0 mi NW 47.2 mph 55.2 mph N/A   Clear
6:48 PM 23.0 °F 2.0 °F 6.8 °F 50% 30.21 in 2.0 mi NW 47.2 mph 62.1 mph N/A Snow Light Snow
7:12 PM 23.0 °F 1.0 °F 6.8 °F 50% 30.19 in 1.8 mi NW 54.1 mph 69.0 mph N/A Snow Light Snow
7:30 PM 23.0 °F 1.8 °F 6.8 °F 50% 30.21 in 4.0 mi NW 48.3 mph 59.8 mph N/A   Haze
8:12 PM 23.0 °F 1.3 °F 6.8 °F 50% 30.22 in 2.0 mi NW 51.8 mph 65.6 mph N/A Snow Light Snow
8:30 PM 23.0 °F 2.4 °F 6.8 °F 50% 30.23 in 2.5 mi NW 44.9 mph 64.4 mph N/A Snow Light Snow
8:48 PM 23.0 °F 2.0 °F 6.8 °F 50% 30.22 in 3.0 mi NW 47.2 mph 58.7 mph N/A Snow Light Snow
9:12 PM 23.0 °F 1.3 °F 6.8 °F 50% 30.19 in 4.0 mi NW 51.8 mph 61.0 mph N/A Snow Light Snow
9:30 PM 23.0 °F 1.8 °F 6.8 °F 50% 30.22 in 7.0 mi NW 48.3 mph 55.2 mph N/A   Overcast
9:48 PM 23.0 °F 2.6 °F 6.8 °F 50% 30.23 in 1.8 mi NW 43.7 mph 56.4 mph N/A   Haze
10:12 PM 23.0 °F 1.7 °F 6.8 °F 50% 30.23 in 0.2 mi NW 49.5 mph 56.4 mph N/A   Haze
10:31 PM 23.0 °F 1.7 °F 6.8 °F 50% 30.21 in 0.2 mi NW 49.5 mph 63.3 mph N/A   Haze
10:48 PM 23.0 °F 2.6 °F 6.8 °F 50% 30.24 in 0.2 mi NW 43.7 mph 56.4 mph N/A   Haze
11:12 PM 23.0 °F 4.6 °F 6.8 °F 50% 30.24 in 0.2 mi NW 33.4 mph 50.6 mph N/A   Haze
11:30 PM 23.0 °F 3.0 °F 6.8 °F 50% 30.22 in 0.5 mi NW 41.4 mph 65.6 mph N/A   Haze
11:48 PM 23.0 °F 4.4 °F 6.8 °F 50% 30.24 in 0.5 mi NW 34.5 mph 50.6 mph N/A   Haze